User: anonymous   Login
Location: Unspecified
(0.0000°N, 0.0000°E)
Time: 09:13:22
(UTC+00:00)
Language:

Kyokko - Orbit

View from above orbital plane
View from above orbital plane
View from above satellite
View from above satellite

Ground track
Ground track

The orbit data is extracted from the following two-line orbital elements,

1 10664U 78014A   18110.12602318 -.00000034  00000-0  50058-5 0  9992
2 10664  65.3659 156.4704 1905253  17.4152 348.3849 10.75477699577637
Epoch (UTC): 20 April 2018 03:01:28
Eccentricity: 0.1905253
inclination: 65.3659°
perigee height: 640 km
apogee height: 3943 km
right ascension of ascending node: 156.4704°
argument of perigee: 17.4152°
revolutions per day: 10.75477699
mean anomaly at epoch: 348.3849°
orbit number at epoch: 57763

The dashed part of the orbit path shows where the satellite is in the earth's shadow,  

DLR